Location: Deurze
(52.9838°N, 6.6090°E)
Time: 17:08:44
(UTC+00:00)

Cosmos 2344 - Pass Details

Date: 11 March 2026
Orbit: 1194 x 3048 km, 63.3° (Epoch: 22 April)

Event Time Altitude Azimuth Distance (km) Brightness Sun altitude
Rises 20:26:28 0° 304° (WNW) 4,105 7.6 -26.1°
Reaches altitude 10° 20:29:08 10° 309° (NW) 3,171 6.7 -26.5°
Maximum altitude 20:36:21 53° 26° (NNE) 1,626 4.1 -27.4°
Enters shadow 20:39:13 39° 77° (ENE) 2,048 4.3 -27.7°
